Location: Canazei
(46.4667°N, 11.7667°E)
Time: 03:42:03
(UTC+00:00)

CBERS-1 - Pass Details

Date: 21 April 2021
Orbit: 769 x 778 km, 98.7° (Epoch: 10 May)

Event Time Altitude Azimuth Distance (km) Brightness Sun altitude
Rises 01:42:00 0° 15° (NNE) 3,255 8.3 -22.6°
Reaches altitude 10° 01:44:20 10° 17° (NNE) 2,323 7.4 -22.4°
Maximum altitude 01:49:27 75° 103° (ESE) 800 4.1 -21.8°
Enters shadow 01:51:20 40° 180° (S) 1,130 4.5 -21.6°
